Airport Information

KMFR - Rogue Valley Intl Medford Airport

KMFR 242229Z 00000KT 2SM -RA BKN005 BKN012 OVC022 02/M01 A2979 RMK AO2 UPB06E29RAB29SNE06 P0000 T00221006


  • General Information

  • Coordinates: N 42°22'27"/ W 122°52'24"
  • Location: N/A
  • Surveyed Elevation: 1335 MSL

Operations

Flow Name Active Runways Conditions

Green background denotes normal operations.


Common Frequencies

Callsign Frequency Position Name

More at the Document Center


Charts


Flights